EW5770 Weather Reports


Display with metric or nautical units.
time (UTC)temp
F
wind
direction
speed
MPH
gust
MPH
rain 1hr
in
rain 24hr
in
rain mn
in
humidity
%
barometer
mb
20260906120225 88 236 0.0 1.0 0.00 0.00 0.00 64 1019.7
20260906115222 88 239 0.0 2.0 0.00 0.00 0.00 63 1019.8
20260906114223 90 0 0.0 0.0 0.00 0.00 0.00 47 1019.7
20260906113215 90 0 0.0 0.0 0.00 0.00 0.00 48 1019.6
20260906112222 89 40 0.0 3.0 0.00 0.00 0.00 50 1019.6
20260906111222 90 0 0.0 0.0 0.00 0.00 0.00 49 1019.7
20260906110224 89 241 0.0 1.0 0.00 0.00 0.00 51 1019.7
20260906105221 89 123 0.0 1.0 0.00 0.00 0.00 57 1019.8
20260906104222 88 0 0.0 0.0 0.00 0.00 0.00 54 1019.9
20260906103220 88 0 0.0 0.0 0.00 0.00 0.00 55 1019.8
20260906102223 88 221 0.0 1.0 0.00 0.00 0.00 54 1019.8
20260906100215 87 0 0.0 0.0 0.00 0.00 0.00 53 1020.0
20260906095222 87 0 0.0 0.0 0.00 0.00 0.00 54 1020.0
20260906094215 87 0 0.0 0.0 0.00 0.00 0.00 55 1020.0
20260906093215 86 0 0.0 0.0 0.00 0.00 0.00 56 1020.1
20260906092222 86 0 0.0 0.0 0.00 0.00 0.00 56 1020.2
20260906091223 86 48 0.0 2.0 0.00 0.00 0.00 57 1020.2
20260906090223 86 138 0.0 1.0 0.00 0.00 0.00 58 1020.2
20260906085224 85 0 0.0 0.0 0.00 0.00 0.00 62 1020.2
20260906084222 83 0 0.0 0.0 0.00 0.00 0.00 66 1020.2
20260906083222 82 0 0.0 0.0 0.00 0.00 0.00 69 1020.2
20260906082217 81 0 0.0 0.0 0.00 0.00 0.00 69 1020.1
20260906081222 79 0 0.0 0.0 0.00 0.00 0.00 72 1020.2
20260906080223 78 0 0.0 0.0 0.00 0.00 0.00 74 1020.1
20260906074222 76 0 0.0 0.0 0.00 0.00 0.00 78 1020.2
20260906073218 75 0 0.0 0.0 0.00 0.00 0.00 79 1020.2
20260906072223 74 0 0.0 0.0 0.00 0.00 0.00 80 1020.0
20260906071223 73 0 0.0 0.0 0.00 0.00 0.00 81 1020.0
20260906070222 73 0 0.0 0.0 0.00 0.00 0.00 82 1020.0
20260906065217 72 0 0.0 0.0 0.00 0.00 0.00 82 1020.1
20260906064221 72 0 0.0 0.0 0.00 0.00 0.00 84 1020.1
20260906063222 71 0 0.0 0.0 0.00 0.00 0.00 87 1020.1
20260906062217 71 0 0.0 0.0 0.00 0.00 0.00 85 1020.0
20260906060225 70 0 0.0 0.0 0.00 0.00 0.00 88 1019.9
20260906055223 70 0 0.0 0.0 0.00 0.00 0.00 87 1019.7
20260906054223 69 0 0.0 0.0 0.00 0.00 0.00 88 1019.7
20260906053221 69 0 0.0 0.0 0.00 0.00 0.00 90 1019.7
20260906052215 69 0 0.0 0.0 0.00 0.00 0.00 90 1019.5
20260906051218 69 0 0.0 0.0 0.00 0.00 0.00 90 1019.5
20260906050224 69 0 0.0 0.0 0.00 0.00 0.00 90 1019.3
20260906045220 69 0 0.0 0.0 0.00 0.00 0.00 90 1019.2
20260906044223 69 0 0.0 0.0 0.00 0.00 0.00 90 1019.1
20260906043221 69 0 0.0 0.0 0.00 0.00 0.00 90 1019.1
20260906042220 69 0 0.0 0.0 0.00 0.00 0.00 91 1019.0
20260906041224 69 0 0.0 0.0 0.00 0.00 0.00 92 1019.0
20260906040226 69 0 0.0 0.0 0.00 0.00 0.00 90 1018.9
20260906035221 70 0 0.0 0.0 0.00 0.00 0.00 90 1018.9
20260906033220 70 0 0.0 0.0 0.00 0.00 0.00 91 1018.6
20260906032224 70 0 0.0 0.0 0.00 0.00 0.00 89 1018.5
20260906030223 70 0 0.0 0.0 0.00 0.00 0.00 91 1018.5
20260906025221 70 0 0.0 0.0 0.00 0.00 0.00 91 1018.5
20260906024223 70 0 0.0 0.0 0.00 0.00 0.00 90 1018.5
20260906023221 70 0 0.0 0.0 0.00 0.00 0.00 90 1018.5
20260906022217 70 0 0.0 0.0 0.00 0.00 0.00 91 1018.5
20260906021225 70 0 0.0 0.0 0.00 0.00 0.00 92 1018.5
20260906015225 71 0 0.0 0.0 0.00 0.00 0.00 90 1018.6
20260906013216 71 0 0.0 0.0 0.00 0.00 0.00 91 1018.6
20260906011216 71 0 0.0 0.0 0.00 0.00 0.00 91 1018.6
20260906010226 71 0 0.0 0.0 0.00 0.00 0.00 91 1018.6
20260906005224 71 0 0.0 0.0 0.00 0.00 0.00 91 1018.5
20260906004224 71 0 0.0 0.0 0.00 0.00 0.00 90 1018.5
20260906003225 71 0 0.0 0.0 0.00 0.00 0.00 90 1018.5
20260906002215 72 0 0.0 0.0 0.00 0.00 0.00 91 1018.4
20260906001224 72 0 0.0 0.0 0.00 0.00 0.00 91 1018.5
20260906000226 72 0 0.0 0.0 0.00 0.00 0.00 91 1018.6
20260905234225 72 0 0.0 0.0 0.00 0.00 0.00 91 1018.6
20260905233225 72 0 0.0 0.0 0.00 0.00 0.00 92 1018.6
20260905231224 73 0 0.0 0.0 0.00 0.00 0.00 90 1018.8
20260905230226 73 0 0.0 0.0 0.00 0.00 0.00 90 1018.8
20260905224223 73 0 0.0 0.0 0.00 0.00 0.00 90 1018.8
20260905223222 73 0 0.0 0.0 0.00 0.00 0.00 90 1018.8
20260905222216 73 0 0.0 0.0 0.00 0.00 0.00 91 1018.8
20260905221222 73 0 0.0 0.0 0.00 0.00 0.00 90 1018.7
20260905215223 74 0 0.0 0.0 0.00 0.00 0.00 90 1018.6
20260905214222 74 0 0.0 0.0 0.00 0.00 0.00 89 1018.6
20260905213222 74 0 0.0 0.0 0.00 0.00 0.00 89 1018.5
20260905212221 74 0 0.0 0.0 0.00 0.00 0.00 89 1018.3
20260905210218 75 0 0.0 0.0 0.00 0.00 0.00 88 1018.2
20260905205216 75 0 0.0 0.0 0.00 0.00 0.00 87 1018.2
20260905203216 76 0 0.0 0.0 0.00 0.00 0.00 87 1018.1
20260905202216 76 0 0.0 0.0 0.00 0.00 0.00 87 1018.1
20260905200216 77 0 0.0 0.0 0.00 0.00 0.00 85 1018.0
20260905195216 77 0 0.0 0.0 0.00 0.00 0.00 84 1018.0
20260905194216 78 0 0.0 0.0 0.00 0.00 0.00 83 1018.0
20260905193216 78 0 0.0 0.0 0.00 0.00 0.00 82 1017.9
20260905192216 79 0 0.0 0.0 0.00 0.00 0.00 82 1017.9
20260905191216 79 0 0.0 0.0 0.00 0.00 0.00 81 1017.9
20260905190216 79 0 0.0 0.0 0.00 0.00 0.00 81 1017.8
20260905185215 79 0 0.0 0.0 0.00 0.00 0.00 82 1017.8
20260905184216 79 0 0.0 0.0 0.00 0.00 0.00 82 1017.6
20260905183216 79 0 0.0 0.0 0.00 0.00 0.00 81 1017.4
20260905182216 79 0 0.0 0.0 0.00 0.00 0.00 81 1017.3
20260905181216 79 226 0.0 1.0 0.00 0.00 0.00 81 1017.2
20260905180217 79 0 0.0 0.0 0.00 0.00 0.00 81 1017.2
20260905175216 79 222 0.0 1.0 0.00 0.00 0.00 81 1017.2
20260905174216 80 0 0.0 0.0 0.00 0.00 0.00 80 1017.0
20260905173216 80 0 0.0 0.0 0.00 0.00 0.00 80 1017.0
20260905172217 80 216 0.0 1.0 0.00 0.00 0.00 80 1017.0
20260905171217 80 130 0.0 1.0 0.00 0.00 0.00 80 1016.9
20260905170216 80 0 0.0 0.0 0.00 0.00 0.00 80 1016.9
20260905164216 80 0 0.0 0.0 0.00 0.00 0.00 79 1016.9
20260905163216 80 0 0.0 0.0 0.00 0.00 0.00 78 1016.9
20260905162216 80 0 0.0 0.0 0.00 0.00 0.00 78 1016.9
20260905161216 80 178 0.0 1.0 0.00 0.00 0.00 78 1017.0
20260905160218 80 232 0.0 1.0 0.00 0.00 0.00 78 1017.0
20260905155216 80 0 0.0 0.0 0.00 0.00 0.00 78 1017.1
20260905153216 80 212 0.0 1.0 0.00 0.00 0.00 77 1017.1
20260905151222 80 236 0.0 1.0 0.00 0.00 0.00 77 1017.2
20260905150216 81 240 0.0 1.0 0.00 0.00 0.00 77 1017.3
20260905145221 81 241 0.0 1.0 0.00 0.00 0.00 77 1017.3
20260905143216 81 0 0.0 0.0 0.00 0.00 0.00 75 1017.3
20260905142216 81 0 0.0 0.0 0.00 0.00 0.00 76 1017.4
20260905141217 82 229 0.0 1.0 0.00 0.00 0.00 74 1017.4
20260905140218 82 222 0.0 1.0 0.00 0.00 0.00 74 1017.3
20260905134220 83 257 0.0 1.0 0.00 0.00 0.00 73 1017.3
20260905133216 82 246 0.0 1.0 0.00 0.00 0.00 73 1017.5
20260905132217 82 242 0.0 1.0 0.00 0.00 0.00 73 1017.6
20260905131216 82 234 0.0 1.0 0.00 0.00 0.00 72 1017.5
20260905130217 83 231 0.0 1.0 0.00 0.00 0.00 72 1017.6
20260905125216 83 225 0.0 1.0 0.00 0.00 0.00 71 1017.6
20260905124220 83 205 1.0 3.0 0.00 0.00 0.00 71 1017.6
20260905123216 82 240 0.0 1.0 0.00 0.00 0.00 73 1017.7
20260905122219 83 241 0.0 1.0 0.00 0.00 0.00 72 1017.8
20260905121217 83 239 0.0 10.0 0.00 0.00 0.00 72 1018.0